Temp
79 79 78 78 77 76 75 75 75 74 75 76 77 77 78 76 71 71 69 70 70 69 67 70 69 69 74 75 71 67 65 64 60 60 61 61 61 62 63 62 64 64 62
81 80 79 78 77 74 75 75 75 75 76 77 77 78 78 75 73 69 68 68 69 67 67 66 64 68 69 69 68 65 66 63 60 58 60 61 61 62 62 62 62 64 64
81 80 78 76 75 74 74 74 76 76 76 77 78 77 76 74 73 71 69 67 66 67 66 63 63 65 67 68 67 65 62 62 62 60 59 61 61 62 61 61 61 63 67
82 80 78 76 75 76 75 75 76 77 76 77 77 77 76 76 75 71 71 69 69 69 67 64 63 66 71 67 67 66 64 62 62 60 59 59 60 60 61 59 58 62 68
81 80 78 77 77 76 76 76 76 76 77 78 77 77 77 76 77 73 71 73 71 68 66 67 69 65 62 66 67 66 66 64 62 59 58 58 58 59 58 60 60 67 68
81 80 79 78 77 75 75 75 76 76 77 78 77 77 76 78 53 56 65 73 72 69 65 67 65 61 59 55 56 56 64 66 62 61 58 58 58 59 60 60 66 64 64
81 80 79 78 77 76 77 76 76 74 76 76 76 76 74 70 50 51 56 73 74 69 66 64 63 64 66 67 54 54 54 55 60 64 60 60 60 63 64 66 69 71 70
81 81 81 81 78 78 77 76 74 74 74 73 73 74 72 68 47 47 52 72 72 70 71 71 69 67 68 70 69 66 66 65 66 64 63 65 69 72 72 73 72 72 73
82 81 82 81 79 78 76 74 75 74 74 74 75 74 72 68 47 47 59 68 71 69 72 71 72 71 51 53 70 67 65 61 51 51 53 52 52 57 67 76 73 72 70
83 82 83 82 80 78 77 75 75 76 75 78 75 74 62 70 46 47 59 71 66 67 71 70 52 65 48 51 73 72 70 70 71 69 67 61 63 62 55 76 78 76 70
85 84 83 82 80 79 77 76 75 76 76 75 74 72 71 65 64 46 52 66 70 71 73 70 69 45 47 51 55 75 71 73 67 75 75 75 74 73 77 78 79 79 73
85 84 82 81 82 81 77 76 76 75 73 73 72 73 73 71 56 47 48 55 58 73 73 75 65 44 46 47 59 46 51 62 79 78 77 76 76 76 77 77 76 77 78
84 82 81 81 82 80 78 76 77 75 77 75 76 75 75 76 69 47 47 48 51 69 76 56 45 43 45 51 46 47 45 78 79 77 78 78 79 79 74 72 71 71 71
82 80 80 80 79 80 81 80 80 78 78 79 78 77 76 76 75 73 69 66 52 68 55 66 58 56 47 61 63 62 81 81 80 80 80 80 77 74 74 75 72 71 69
81 80 80 81 78 79 81 82 82 81 77 81 81 81 77 77 77 68 69 76 76 68 69 72 74 75 76 76 78 79 81 79 79 81 80 76 77 77 75 76 74 72 70
80 81 82 83 80 82 81 79 44 51 51 51 53 67 80 59 50 49 51 49 46 48 73 76 76 77 77 78 78 78 78 72 80 80 78 77 77 75 74 74 74 73 72
81 81 84 78 82 82 82 80 77 63 48 47 48 49 51 57 46 45 44 42 43 48 77 77 78 78 79 79 80 80 79 80 80 80 79 78 78 77 72 74 74 74 72
82 62 85 84 85 85 83 82 83 80 76 76 50 57 47 45 42 42 41 47 64 60 78 80 80 80 80 81 81 81 81 81 80 79 79 78 77 77 74 74 74 71 70
84 85 85 86 87 81 85 84 85 84 83 82 82 53 50 42 40 40 41 76 76 76 78 80 82 82 82 82 82 82 81 81 79 78 78 78 77 76 74 75 74 57 59
86 69 74 87 87 85 86 85 85 84 83 83 83 82 76 61 69 69 67 73 79 80 81 81 82 83 83 83 82 82 81 78 78 77 77 77 77 76 75 74 73 66 63
89 86 74 87 87 86 86 85 85 85 84 84 84 82 57 76 79 79 78 77 78 81 82 82 83 83 84 83 82 81 80 80 79 78 78 77 77 75 75 74 72 64 63
91 89 84 86 88 87 86 87 86 86 86 85 86 81 45 79 83 83 83 82 82 82 84 83 83 84 84 84 83 82 81 80 80 79 78 78 77 75 75 73 70 64 59
91 90 86 85 88 75 83 87 87 86 86 87 87 87 76 81 82 85 84 84 83 83 85 85 84 84 85 85 85 84 81 81 82 82 79 78 77 75 73 70 66 62 52
91 89 88 86 87 88 87 85 87 72 86 88 86 87 86 82 82 83 86 86 85 84 84 84 84 84 84 84 85 84 83 83 84 83 81 78 76 68 72 67 64 59 51
92 88 87 85 85 85 86 86 85 86 86 86 87 87 88 87 84 84 85 86 85 84 83 83 84 83 83 83 83 83 69 44 71 65 80 77 74 71 69 65 58 51 49
87 87 85 85 83 84 83 83 83 84 85 85 85 87 87 87 86 85 85 85 85 85 84 84 83 82 82 82 82 66 42 41 55 42 74 74 72 70 67 61 54 45 44
MSLP
1005.07 1005.40 1005.76 1006.14 1006.60 1006.90 1007.11 1007.35 1007.52 1007.81 1007.91 1007.89 1007.92 1007.93 1007.89 1007.99 1008.55 1008.56 1008.61 1008.51 1008.57 1008.90 1009.26 1009.03 1009.02 1009.19 1009.00 1009.18 1009.66 1010.03 1010.38 1010.84 1011.69 1012.81 1013.87 1015.32 1016.04 1016.64 1017.41 1018.26 1018.92 1019.34 1020.11
1004.81 1005.24 1005.67 1006.14 1006.48 1006.80 1007.03 1007.31 1007.63 1007.68 1007.86 1007.81 1007.87 1007.90 1007.91 1008.14 1008.60 1008.75 1008.72 1008.73 1008.66 1008.97 1009.11 1009.25 1009.53 1009.40 1009.63 1009.84 1010.19 1010.68 1011.14 1011.72 1012.19 1013.10 1014.75 1015.64 1016.27 1017.11 1017.84 1018.60 1019.21 1019.77 1020.38
1004.59 1005.10 1005.57 1006.04 1006.45 1006.76 1006.99 1007.32 1007.56 1007.70 1007.78 1007.75 1007.80 1007.88 1008.14 1008.39 1008.51 1008.81 1008.97 1009.05 1009.10 1009.33 1009.55 1009.70 1009.80 1009.91 1009.77 1010.13 1010.58 1011.39 1011.98 1012.52 1013.31 1014.03 1015.45 1016.09 1016.88 1017.65 1018.25 1018.91 1019.54 1020.13 1020.41
1004.37 1004.82 1005.34 1005.92 1006.34 1006.56 1006.94 1007.30 1007.50 1007.61 1007.69 1007.75 1007.81 1008.04 1008.34 1008.40 1008.59 1009.10 1009.01 1009.10 1009.20 1009.34 1009.65 1010.02 1010.15 1010.19 1010.11 1010.61 1011.21 1011.79 1012.27 1013.17 1014.00 1014.87 1015.80 1016.58 1017.19 1018.20 1018.61 1019.36 1020.13 1020.20 1020.30
1004.26 1004.70 1005.32 1005.88 1006.21 1006.61 1006.86 1007.20 1007.46 1007.60 1007.56 1007.65 1007.92 1008.12 1008.42 1008.69 1008.81 1009.14 1009.33 1008.92 1009.23 1009.62 1010.02 1010.27 1010.44 1010.53 1010.72 1010.98 1011.54 1012.10 1012.66 1013.43 1014.29 1015.24 1016.19 1016.99 1017.71 1018.44 1019.00 1019.41 1019.82 1020.15 1020.73
1004.18 1004.61 1005.32 1005.78 1006.24 1006.68 1007.07 1007.24 1007.44 1007.55 1007.63 1007.70 1007.93 1008.19 1008.56 1008.83 1010.06 1010.04 1009.68 1009.28 1009.34 1009.74 1010.30 1010.60 1011.07 1011.34 1011.60 1011.81 1012.32 1012.80 1013.19 1013.66 1014.50 1015.31 1016.44 1017.11 1018.08 1018.58 1019.26 1019.47 1019.57 1019.97 1020.23
1004.06 1004.67 1005.23 1005.73 1006.25 1006.72 1006.94 1007.14 1007.44 1007.64 1007.68 1007.78 1008.00 1008.27 1008.82 1009.96 1010.70 1010.73 1010.39 1009.78 1009.58 1010.05 1010.72 1011.13 1011.59 1012.09 1012.09 1012.73 1013.29 1013.68 1014.16 1014.70 1015.16 1015.41 1016.20 1017.04 1017.68 1018.20 1018.71 1018.86 1019.05 1019.20 1019.43
1003.88 1004.47 1005.00 1005.46 1006.13 1006.62 1006.92 1007.20 1007.61 1007.85 1007.93 1008.21 1008.40 1008.60 1009.28 1010.38 1010.91 1011.01 1010.75 1010.33 1010.25 1010.42 1010.64 1010.98 1011.66 1012.25 1012.47 1012.91 1013.42 1014.12 1014.92 1015.52 1015.98 1016.10 1016.45 1016.88 1017.03 1017.32 1017.92 1018.10 1018.51 1018.82 1019.66
1003.59 1004.26 1004.79 1005.37 1006.00 1006.48 1006.83 1007.33 1007.61 1007.81 1008.06 1008.28 1008.42 1008.74 1009.35 1010.50 1011.17 1011.20 1011.00 1010.91 1010.59 1010.84 1011.07 1011.50 1011.73 1012.37 1013.14 1013.42 1013.59 1014.24 1015.11 1016.09 1016.71 1017.05 1017.15 1017.27 1017.47 1017.56 1017.60 1017.84 1018.31 1018.66 1019.10
1003.30 1004.00 1004.61 1005.22 1005.82 1006.32 1006.87 1007.34 1007.68 1007.85 1008.06 1008.14 1008.50 1008.90 1009.84 1010.46 1011.32 1011.42 1011.25 1011.06 1011.15 1011.27 1011.71 1012.29 1012.53 1013.13 1013.88 1014.00 1013.70 1013.99 1014.62 1015.47 1016.12 1016.74 1017.34 1017.61 1017.57 1018.06 1018.15 1017.71 1017.72 1017.37 1018.49
1003.12 1003.79 1004.50 1005.11 1005.72 1006.29 1006.97 1007.45 1007.66 1007.75 1008.09 1008.42 1008.73 1009.38 1010.03 1010.86 1011.39 1011.68 1011.74 1011.59 1011.55 1011.57 1011.86 1012.72 1013.59 1014.00 1014.11 1014.21 1014.01 1014.02 1014.43 1015.02 1015.63 1015.91 1016.45 1016.94 1017.43 1017.85 1017.80 1017.59 1017.47 1017.48 1018.08
1002.90 1003.57 1004.33 1005.01 1005.43 1006.13 1006.90 1007.42 1007.68 1008.00 1008.32 1008.61 1008.97 1009.31 1009.94 1010.72 1011.43 1011.89 1012.04 1011.87 1012.03 1011.86 1012.08 1012.63 1013.94 1014.42 1014.58 1014.73 1014.65 1014.78 1014.88 1015.11 1015.08 1015.36 1015.71 1016.14 1016.55 1017.08 1017.50 1017.86 1018.29 1018.15 1018.34
1002.66 1003.45 1004.24 1004.95 1005.36 1005.95 1006.65 1007.24 1007.53 1007.98 1008.01 1008.26 1008.44 1008.81 1009.39 1010.06 1011.41 1012.10 1012.44 1012.47 1012.46 1012.42 1012.27 1013.28 1013.99 1014.59 1014.82 1015.06 1015.32 1015.34 1015.21 1014.80 1014.83 1014.98 1015.15 1015.58 1016.10 1016.72 1017.72 1018.42 1018.99 1019.50 1019.70
1002.43 1003.33 1004.10 1004.72 1005.18 1005.76 1006.29 1006.87 1006.96 1007.37 1007.60 1007.80 1007.98 1008.44 1009.22 1009.86 1010.73 1011.69 1012.38 1012.90 1012.99 1012.87 1013.27 1013.87 1014.20 1014.25 1014.58 1014.69 1015.17 1015.23 1014.40 1014.37 1014.26 1014.35 1014.82 1015.55 1016.62 1017.39 1017.62 1018.15 1018.68 1019.18 1019.62
1002.15 1002.97 1003.73 1004.34 1005.06 1005.44 1005.74 1006.21 1006.55 1007.05 1007.27 1007.70 1007.89 1008.28 1008.89 1009.42 1010.11 1010.88 1011.47 1011.87 1012.24 1012.50 1013.07 1013.58 1013.61 1013.66 1013.87 1014.02 1014.04 1014.26 1014.22 1014.59 1014.47 1014.44 1014.85 1015.69 1016.15 1016.56 1017.09 1017.68 1018.14 1018.62 1019.05
1001.56 1002.31 1002.98 1003.47 1004.49 1004.79 1005.39 1006.36 1007.37 1007.59 1007.71 1008.12 1008.25 1008.39 1008.74 1009.40 1010.35 1011.26 1011.79 1012.03 1012.30 1012.73 1012.66 1012.55 1012.63 1012.74 1012.84 1013.07 1013.33 1013.65 1013.99 1014.41 1014.23 1014.52 1014.88 1015.32 1015.63 1016.14 1016.71 1017.37 1017.68 1017.91 1018.37
1000.93 1001.44 1002.09 1002.77 1003.47 1003.96 1004.63 1005.47 1006.43 1008.10 1008.37 1008.67 1008.84 1009.03 1009.45 1009.84 1010.61 1011.37 1011.94 1012.31 1012.57 1012.76 1012.08 1011.88 1011.86 1012.03 1012.15 1012.33 1012.60 1012.83 1013.14 1013.54 1013.89 1014.10 1014.36 1014.79 1015.19 1015.67 1016.34 1016.64 1017.01 1017.48 1018.22
1000.47 1000.94 1001.39 1002.07 1002.46 1003.12 1003.78 1004.48 1005.09 1005.93 1007.18 1008.08 1009.03 1009.23 1009.75 1010.29 1010.86 1011.54 1012.13 1012.58 1013.04 1013.05 1011.67 1011.06 1011.10 1011.22 1011.48 1011.67 1011.91 1012.15 1012.45 1012.85 1013.43 1013.71 1013.91 1014.29 1014.71 1015.01 1015.70 1015.96 1016.52 1017.23 1017.89
999.70 1000.22 1000.87 1001.32 1001.69 1002.29 1002.90 1003.57 1004.05 1004.52 1005.25 1006.11 1006.99 1009.18 1009.85 1010.60 1011.20 1011.68 1011.82 1011.25 1011.10 1011.20 1011.03 1010.51 1010.30 1010.44 1010.67 1011.00 1011.29 1011.57 1011.88 1012.23 1012.71 1013.26 1013.44 1013.81 1014.17 1014.46 1014.85 1015.26 1015.75 1016.64 1017.66
998.78 999.35 1000.24 1000.40 1000.95 1001.71 1002.05 1002.55 1003.01 1003.56 1004.15 1004.82 1005.49 1006.67 1008.24 1010.07 1010.52 1010.90 1010.92 1010.50 1009.92 1009.70 1009.74 1009.81 1009.88 1009.99 1010.08 1010.35 1010.70 1011.02 1011.27 1011.74 1012.14 1012.54 1012.66 1012.97 1013.38 1013.75 1014.02 1014.57 1015.25 1016.80 1017.75
997.43 998.49 999.43 999.74 1000.04 1000.67 1001.16 1001.49 1001.91 1002.39 1002.99 1003.66 1004.52 1005.60 1006.15 1007.90 1007.92 1008.12 1008.32 1008.54 1008.57 1008.45 1008.44 1008.64 1008.84 1009.16 1009.36 1009.57 1009.80 1010.11 1010.39 1010.67 1011.11 1011.54 1011.87 1012.18 1012.54 1012.83 1013.33 1013.81 1014.71 1016.48 1017.98
996.26 996.97 998.50 998.69 999.07 999.60 1000.12 1000.67 1001.21 1001.56 1001.91 1002.52 1003.46 1004.74 1005.88 1006.66 1006.12 1006.05 1006.26 1006.57 1007.03 1007.26 1007.28 1007.48 1007.60 1007.78 1008.02 1008.31 1008.68 1009.09 1009.37 1009.67 1010.07 1010.59 1011.04 1011.34 1011.88 1012.59 1013.08 1013.52 1014.65 1016.52 1018.06
995.40 995.93 996.93 997.87 998.02 998.61 999.47 999.75 1000.11 1000.50 1001.00 1001.63 1002.27 1003.10 1004.80 1004.67 1004.69 1004.37 1004.43 1004.84 1005.39 1005.84 1006.06 1006.22 1006.37 1006.66 1006.86 1007.04 1007.42 1007.86 1008.35 1008.74 1009.16 1009.72 1010.21 1010.61 1011.02 1011.65 1012.42 1013.23 1014.69 1016.04 1017.75
994.79 995.10 995.64 996.49 996.97 997.52 998.22 998.86 999.11 999.69 999.93 1000.27 1000.94 1001.45 1002.05 1003.02 1003.28 1003.23 1003.14 1003.60 1004.14 1004.61 1005.02 1005.19 1005.39 1005.51 1005.80 1006.21 1006.51 1006.78 1007.13 1007.61 1007.95 1008.31 1008.87 1009.18 1009.64 1010.65 1011.38 1012.58 1013.85 1015.63 1017.63
994.21 994.75 995.16 995.81 996.28 996.89 997.26 998.06 998.59 998.76 999.23 999.58 999.82 1000.15 1000.59 1000.94 1001.73 1001.96 1002.11 1002.43 1002.91 1003.40 1003.90 1004.29 1004.45 1004.75 1005.07 1005.38 1005.59 1005.78 1006.14 1007.00 1007.33 1007.14 1007.65 1008.66 1009.47 1010.75 1012.19 1013.32 1014.96 1016.65 1017.74
994.15 994.31 995.03 995.70 996.14 996.38 997.07 997.52 998.18 998.56 998.99 999.23 999.39 999.54 999.87 1000.10 1000.42 1000.94 1001.27 1001.46 1001.83 1002.23 1002.67 1003.22 1003.72 1004.06 1004.28 1004.48 1004.70 1005.17 1005.98 1006.47 1006.82 1007.60 1007.91 1008.66 1009.32 1010.16 1011.38 1013.11 1014.85 1016.78 1017.98
Wind_Speed
10 9 7 7 6 6 5 5 6 6 6 5 3 1 2 3 4 2 1 4 5 6 4 6 5 6 3 4 4 5 7 9 10 12 14 13 15 14 12 10 9 8 6
10 9 7 6 6 6 6 6 6 6 6 5 4 1 1 5 3 3 4 2 4 5 6 3 3 5 7 8 7 8 10 9 12 17 17 11 13 12 13 11 7 6 6
10 8 7 6 6 6 7 6 6 6 6 5 4 4 3 5 5 7 5 4 4 5 7 4 5 5 8 9 11 10 10 9 11 13 11 7 6 9 9 8 6 5 4
9 7 7 5 6 6 7 7 6 6 6 6 5 6 6 5 6 6 4 7 6 5 7 7 3 5 10 10 12 13 12 11 11 11 10 8 7 7 7 7 5 2 6
9 8 7 6 6 8 8 8 6 6 6 6 7 7 6 6 4 7 3 5 9 8 7 7 6 6 9 10 9 12 15 13 10 12 8 9 8 8 8 3 5 7 6
10 9 8 7 8 8 9 9 8 7 7 6 7 8 7 6 8 7 5 3 7 10 8 9 8 10 11 14 14 12 10 14 13 11 9 11 10 8 6 7 8 9 8
11 10 9 8 10 10 10 10 8 7 6 6 6 7 7 9 5 1 7 3 5 10 10 9 8 7 11 14 14 15 14 13 8 14 15 10 11 12 12 10 11 10 8
11 11 10 11 11 10 10 9 8 6 5 5 5 6 7 8 4 3 6 5 5 9 10 12 13 10 12 14 14 14 13 9 8 7 8 11 11 12 12 10 10 8 11
13 12 11 11 11 10 10 9 7 7 6 4 3 6 9 9 4 5 4 5 6 9 11 9 12 15 10 12 14 14 12 7 9 10 9 7 9 10 10 10 9 10 10
14 14 12 12 12 10 10 9 7 7 7 5 6 7 9 10 5 5 2 5 8 6 12 10 14 13 9 6 13 15 15 13 11 10 8 8 10 7 4 9 11 8 7
14 14 13 12 11 10 9 7 7 6 7 7 7 8 9 7 7 2 6 4 7 9 10 9 8 8 10 9 2 10 11 11 11 12 10 10 10 9 7 4 6 5 6
15 14 14 12 10 9 10 8 7 7 7 8 9 7 8 8 8 5 5 6 7 10 9 9 7 8 10 9 5 8 11 11 9 9 9 10 10 9 7 5 3 4 6
15 14 14 13 11 11 10 9 8 7 7 7 8 8 8 9 7 8 7 6 6 7 7 10 15 9 9 9 9 8 9 8 9 9 8 8 8 7 8 8 8 10 10
16 15 13 13 12 12 10 9 8 7 7 6 7 8 8 8 9 8 7 6 7 7 9 7 7 6 6 9 7 5 5 6 7 7 7 7 7 8 8 8 9 8 8
16 15 14 12 12 11 10 9 9 8 5 7 6 7 8 9 9 10 10 10 9 8 8 7 7 7 7 7 7 7 6 6 6 7 8 8 8 8 8 8 8 8 7
17 14 13 12 12 11 11 8 8 8 9 7 4 1 8 5 15 11 8 7 12 14 8 9 9 9 9 9 9 8 7 6 7 7 7 8 8 9 9 9 9 9 8
16 15 13 12 12 11 11 11 10 3 6 4 1 1 6 12 13 13 10 9 8 9 8 8 9 9 9 9 9 9 9 9 9 8 9 9 8 9 10 9 9 8 7
18 15 13 14 13 12 12 11 10 11 11 9 6 8 6 9 11 11 13 11 6 6 9 9 9 9 9 10 9 9 9 9 9 9 9 9 9 9 9 9 9 8 9
17 14 14 13 12 13 12 11 11 11 11 11 11 6 8 8 9 9 12 10 10 11 11 10 9 10 9 9 9 10 10 10 9 9 9 9 10 10 10 11 10 11 12
17 16 15 13 12 13 12 12 12 11 11 11 11 11 12 9 9 10 11 11 11 11 11 12 11 10 10 10 10 10 10 10 10 11 11 11 11 11 11 12 11 11 13
15 16 17 14 13 13 13 14 13 13 12 12 12 11 13 12 13 13 13 13 14 13 12 12 11 12 12 11 11 11 12 11 12 12 12 12 12 12 12 11 11 13 12
15 15 16 17 14 14 14 13 13 13 14 13 12 11 16 13 13 14 14 13 14 14 13 13 12 12 12 12 13 13 13 13 12 12 12 12 12 11 11 11 12 12 13
15 16 16 16 15 15 13 14 14 15 14 14 13 13 12 13 14 13 13 13 13 13 14 14 14 13 13 13 13 12 13 13 12 12 12 12 12 12 12 12 13 14 12
15 16 16 15 16 15 15 15 15 15 16 15 14 14 13 13 14 15 14 13 13 13 13 13 14 16 14 13 12 12 12 12 11 12 17 14 14 13 13 15 14 17 14
15 14 14 13 13 14 13 13 14 14 15 14 14 14 15 14 14 14 14 13 13 13 14 13 13 17 20 21 18 18 14 9 13 11 11 14 14 15 13 12 14 14 16
13 11 11 10 11 11 11 10 10 10 12 13 14 13 13 14 13 13 13 14 13 14 15 12 14 20 20 18 22 17 8 10 10 7 10 11 12 12 13 15 22 13 17
Wind_Direction
168 167 159 160 148 138 136 143 152 163 170 170 165 168 78 110 90 139 147 209 182 153 151 216 207 162 161 111 122 104 101 102 106 115 118 131 131 133 123 118 138 116 118
168 167 165 156 164 146 143 145 159 174 182 163 154 167 147 85 98 77 95 123 131 136 151 137 161 153 143 141 111 102 108 101 116 117 131 133 127 123 126 130 119 121 130
165 161 163 160 160 157 144 146 170 173 176 168 151 150 127 97 91 86 78 100 111 138 136 121 122 144 135 125 118 114 117 104 115 118 128 111 110 121 109 94 94 95 147
168 165 146 152 155 143 142 145 159 175 169 160 149 121 131 110 88 87 102 130 118 134 134 130 131 161 128 134 126 131 126 124 119 125 114 122 110 106 103 119 106 90 112
164 159 139 138 135 143 141 141 145 158 164 147 147 134 118 125 99 105 101 106 119 106 105 129 131 87 98 134 130 135 135 132 128 127 119 123 120 130 134 115 103 129 134
163 147 143 140 140 139 140 140 147 143 149 149 155 143 134 91 68 5 357 99 105 110 101 102 108 101 76 81 83 74 123 137 135 128 133 133 131 126 131 155 145 154 149
166 147 149 144 142 145 144 142 138 143 147 137 146 144 126 111 120 64 327 145 108 114 116 116 111 115 130 113 90 87 83 83 111 143 141 151 153 156 164 173 164 170 148
166 159 152 150 146 146 149 137 141 150 145 133 153 133 132 104 146 205 291 109 112 120 124 129 130 139 123 125 132 120 125 110 115 133 136 154 174 160 169 164 175 147 129
166 162 159 151 151 150 143 144 149 157 147 136 115 133 124 124 162 208 178 133 128 121 118 117 131 126 126 135 136 131 123 102 74 91 116 134 156 150 177 152 156 155 159
170 168 165 156 154 153 138 140 148 153 144 143 125 117 119 126 145 207 195 152 104 108 112 80 69 102 93 67 140 144 134 144 138 131 118 103 137 127 178 196 183 165 158
171 170 171 164 162 153 144 142 145 159 132 132 125 124 120 135 130 58 149 139 124 128 125 122 116 111 85 57 101 144 139 148 143 139 138 143 153 157 166 182 197 146 188
171 173 173 171 182 163 163 153 149 140 144 145 141 149 137 144 121 101 51 80 130 133 140 135 129 111 82 43 59 94 108 148 155 150 149 154 157 166 152 154 129 30 36
174 176 173 177 188 166 171 166 162 169 157 162 164 148 145 145 145 107 91 112 48 157 147 80 104 113 111 101 104 146 186 168 162 164 156 150 154 132 124 130 112 107 94
176 177 177 183 183 176 182 177 182 181 174 176 164 155 150 152 145 154 146 146 141 122 127 124 115 112 56 95 148 179 184 158 163 158 150 136 128 155 161 158 153 148 132
178 178 180 187 187 182 200 185 193 187 188 182 173 162 165 171 165 163 163 166 174 145 139 152 170 181 179 177 182 179 174 167 184 166 157 162 170 169 164 166 163 162 156
181 182 183 185 183 189 193 179 58 32 116 65 15 227 157 115 130 150 158 115 116 146 191 182 188 192 193 187 189 187 191 194 195 181 181 184 180 181 174 180 180 193 173
191 183 183 197 182 193 194 193 191 140 77 120 101 214 22 147 150 154 147 131 150 161 215 195 197 198 200 199 200 201 199 198 201 199 195 193 190 196 178 189 193 194 175
192 182 194 195 187 193 193 197 200 193 196 193 204 212 193 149 150 145 139 143 155 224 230 213 210 207 210 212 211 213 211 201 206 211 206 203 202 199 190 198 196 187 178
188 189 201 189 194 195 190 196 200 198 193 195 179 176 121 102 124 141 173 208 205 208 216 231 223 217 216 218 218 218 217 216 205 212 213 209 205 206 199 206 196 189 165
192 194 193 196 195 195 198 196 198 202 199 205 202 188 166 161 184 185 198 217 231 223 219 224 230 232 227 218 219 220 218 213 207 214 214 210 208 211 207 204 195 175 175
190 185 190 206 202 195 202 201 201 200 203 205 209 197 165 194 204 206 200 209 217 227 225 227 225 225 228 228 223 220 220 219 214 212 218 214 212 212 214 205 186 174 178
193 186 187 206 198 199 204 204 207 208 208 208 208 195 160 199 216 211 212 209 217 222 225 222 225 225 223 223 220 222 225 224 222 216 219 220 213 214 218 200 184 175 173
198 194 183 203 207 202 196 206 204 208 211 213 212 206 183 206 218 223 213 214 212 220 220 225 223 226 226 222 222 222 224 227 226 222 222 220 213 210 203 198 177 184 164
210 200 194 196 203 203 205 206 210 209 212 210 208 217 196 203 214 223 221 214 216 217 221 223 225 223 223 224 220 221 221 224 226 221 218 216 213 194 193 188 185 173 160
220 201 206 198 205 209 205 217 217 222 214 223 220 213 220 211 210 218 222 219 215 216 219 221 222 223 224 226 225 220 218 182 219 222 210 218 213 196 195 186 161 159 157
235 193 202 202 202 197 204 206 225 230 238 233 228 230 224 222 218 219 216 218 216 215 214 215 222 226 223 225 228 226 176 173 185 195 202 201 202 187 179 171 164 152 156